User: anonymous   Login
Location: Unspecified
(0.0000°N, 0.0000°E)
Time: 18:11:37
(UTC+02:00)
Language:

SJ-6B - Orbit

View from above orbital plane
View from above orbital plane
View from above satellite
View from above satellite

Ground track
Ground track

The orbit data is extracted from the following two-line orbital elements,

1 28415U 04035C   16147.11676733  .00000705  00000-0  51895-4 0  9999
2 28415  97.7785 167.5532 0052758 355.9095   4.1693 15.05706271640329
Epoch (UTC): 26 May 2016 02:48:08
Eccentricity: 0.0052758
inclination: 97.7785°
perigee height: 513 km
apogee height: 586 km
right ascension of ascending node: 167.5532°
argument of perigee: 355.9095°
revolutions per day: 15.05706271
mean anomaly at epoch: 4.1693°
orbit number at epoch: 64032

The dashed part of the orbit path shows where the satellite is in the earth's shadow,  

DLR